Regional Weather Roundup
Issued by NWS

Home | Current Version | Previous Version | Text Only | Print | Product List | Glossary Off
Versions: 1 2 3 4 5 6 7 8 9 10 11 12 13 14 15 16 17 18 19 20 21 22 23 24 25 26 27 28 29 30 31 32 33 34 35 36 37 38 39 40 41 42 43 44 45 46 47 48 49 50

000
ASUS43 KDTX 042001
RWRMI
MICHIGAN HOURLY REGIONAL WEATHER ROUNDUP
NATIONAL WEATHER SERVICE DETROIT/PONTIAC MI
400 PM EDT SAT JUL 04 2015

NOTE: "FAIR" INDICATES FEW OR NO CLOUDS BELOW 12,000 FEET WITH NO
SIGNIFICANT WEATHER AND/OR OBSTRUCTION TO VISIBILITY.

MIZ047>049-052>055-059>063-066>070-074>076-081>083-042100-
SOUTHEAST LOWER MICHIGAN

CITY           SKY/WX    TMP DP  RH WIND       PRES   REMARKS
ADRIAN         SUNNY     77  52  41 VRB3      30.02S
ALMA           MOSUNNY   81  56  42 SW7       29.99S
ANN ARBOR      SUNNY     78  57  48 VRB5      30.00F
BAD AXE        MOSUNNY   79  51  37 W9        29.98R
CARO           MOSUNNY   80  58  46 SW9G16    29.98R
DETROIT CITY   MOSUNNY   77  52  41 SE8       30.00S
DETROIT        SUNNY     80  53  39 W6        30.01S
FLINT          SUNNY     81  56  42 SW9       29.99F
GROSSE ILE     SUNNY     75  61  60 S9        30.00R
HILLSDALE      SUNNY     77  54  44 S3        30.03S
HOWELL         SUNNY     78  52  39 CALM      30.01S

CITY           SKY/WX    TMP DP  RH WIND       PRES   REMARKS
JACKSON        SUNNY     77  57  50 VRB3      30.01F
LAMBERTVILLE   SUNNY     79  51  37 CALM      30.02R
LANSING        SUNNY     79  54  41 W7        30.01S
LAPEER         FAIR      80  50  35 W5        30.00S
MASON          SUNNY     76  54  45 SW5       30.01S
MONROE         SUNNY     77  52  41 CALM      30.00S
MT. CLEMENS    MOSUNNY   77  57  50 SE7       29.98S
PONTIAC        CLOUDY    79  54  41 VRB6      30.00S
PORT HOPE        N/A     69  62  78 E12       29.97S
PORT HURON     SUNNY     77  57  50 CALM      29.99S
TRI CITIES     MOSUNNY   82  57  42 W9        29.98S
MIDLAND        FAIR      82  58  44 SW8       29.96S
TROY           SUNNY     80  51  36 NW3       30.01F
SAGINAW HB     SUNNY     81  52  36 S6        29.98R
$$
MIZ043>046-050>051-056>058-064>065-071>073-077>080-042100-
SOUTHWEST LOWER MICHIGAN

CITY           SKY/WX    TMP DP  RH WIND       PRES   REMARKS
BATTLE CREEK   SUNNY     79  55  43 W7        30.02S
BENTON HARBOR  SUNNY     76  57  51 W8        30.02S
BIG RAPIDS     MOSUNNY   80  54  40 W5        29.97S
COLDWATER      SUNNY     77  57  50 W5        30.02S
FREMONT        FAIR      80  54  41 SW6       29.98F
HOLLAND        SUNNY     77  59  53 SW10      30.02S
GRAND RAPIDS   CLOUDY    80  57  45 NW7       30.00S
IONIA          FAIR      80  55  42 W6        29.99F
KALAMAZOO      SUNNY     79  56  45 SW6       30.01S
LUDINGTON      SUNNY     72  61  68 W3        30.00S
MARSHALL       SUNNY     79  58  47 CALM      30.01S
MOUNT PLEASANT MOSUNNY   82  58  43 NW3       29.96F
MUSKEGON       PTSUNNY   74  60  61 SW9       30.01S
SOUTH HAVEN    SUNNY     74  55  51 W8        30.02S
$$
MIZ016>042-042100-
NORTHERN LOWER MICHIGAN

CITY           SKY/WX    TMP DP  RH WIND       PRES   REMARKS
ALPENA         SUNNY     77  59  53 SE9       29.96S
BEAVER ISLAND  SUNNY     75  58  55 W7        30.00R
BELLAIRE       MOSUNNY   79  56  45 NW6       29.97S
CADILLAC       PTSUNNY   81  59  46 W7        29.98S
CHARLEVOIX     SUNNY     72  58  61 NW6       30.02S
FRANKFORT      SUNNY     74  55  51 W7        30.00R
GAYLORD        MOSUNNY   77  55  46 VRB6      29.99S
GRAYLING       PTSUNNY   81  56  42 NW5       29.99R
HARBOR SPRINGS PTSUNNY   65  60  83 S7        29.99R
HOUGHTON LAKE  MOSUNNY   81  57  43 W6        29.98S
MANISTEE       SUNNY     72  57  60 W7        29.99F
OSCODA         MOSUNNY   79  58  49 SE10G17   29.95S
PELLSTON       PTSUNNY   77  56  48 CALM      29.98S
ROGERS CITY    SUNNY     71  60  69 N8        29.98S
TRAVERSE CITY  PTSUNNY   75  60  59 NE8       29.97R
$$
MIZ007>008-015-042100-
EASTERN UPPER MICHIGAN

CITY           SKY/WX    TMP DP  RH WIND       PRES   REMARKS
KINROSS        SUNNY     73  54  49 NW10      29.98R
MACKINAC ISLAN SUNNY     71  60  68 W6        29.99R
NEWBERRY       MOSUNNY   73  58  59 CALM      29.99R
S. S. MARIE    SUNNY     71  57  61 W9        29.97R
$$
MIZ004>006-011>014-085-042100-
CENTRAL UPPER MICHIGAN

CITY           SKY/WX    TMP DP  RH WIND       PRES   REMARKS
MANISTIQUE     MOSUNNY   69  58  68 S8        29.99S
ESCANABA       SUNNY     73  59  60 S10       29.98S
MENOMINEE      MOSUNNY   73  59  60 E9        29.98S
SAWYER-GWINN   SUNNY     70  57  64 E8        30.01S
$$
MIZ001>003-009>011-084-042100-
WESTERN UPPER MICHIGAN

CITY           SKY/WX    TMP DP  RH WIND       PRES   REMARKS
IRON MOUNTAIN  MOSUNNY   80  57  45 VRB6      29.97S
HOUGHTON       MOSUNNY   70  56  61 SE9       30.00S
COPPER HARBOR    N/A     70  53  54 VRB5      29.99S
IRONWOOD       PTSUNNY   79  57  47 E5        29.94S
$$

ABBREVIATIONS USED IN REMARKS
   TC - TEMPERATURE IN CELSIUS
  WCI - WIND CHILL INDEX
   HX - HEAT INDEX
  VSB - VISIBILITY



USA.gov is the U.S. government's official web portal to all federal, state and local government web resources and services.